Weather History for Covington, KY

Change the Weather History Date:

Thursday, December 26, 2013

  Actual Average Record
Temperature  
Mean Temperature 34 °F 32 °F  
Max Temperature 41 °F 39 °F 64 °F (1889)
Min Temperature 27 °F 24 °F -3 °F (1983)
Degree Days  
Heating Degree Days 31 33  
Month to date heating degree days 764 790  
Since 1 July heating degree days 1800 1750  
Cooling Degree Days 0 0  
Month to date cooling degree days 0 0  
Year to date cooling degree days 1150 1121  
Moisture  
Dew Point 22 °F    
Average Humidity 60    
Maximum Humidity 78    
Minimum Humidity 41    
Precipitation  
Precipitation 0.00 in 0.11 in 1.39 in (1895)
Month to date precipitation 4.64 2.83  
Year to date precipitation 49.21 41.98  
Snow  
Snow 0.00 in 0.20 in 3.30 in (1930)
Month to date snowfall 10.3 3.8  
Since 1 July snowfall 12.7 4.6  
Snow Depth 0.00 in    
Sea Level Pressure  
Sea Level Pressure 30.31 in    
Wind  
Wind Speed 9 mph (WSW)    
Max Wind Speed 23 mph    
Max Gust Speed 28 mph    
Visibility 10 miles    
Events      
T = Trace of Precipitation, MM = Missing Value Source: NWS Daily Summary

Daily Weather History Graph

Daily Weather History Graph

Search for Another Location

Airport:

Trip Planner

Search our weather history database for the weather conditions in past years. The results will help you decide how hot, cold, wet, or windy it might be!

Date:

Astronomy

Dec. 26, 2013 Rise Set
Actual Time 7:56 AM EST 5:22 PM EST
Civil Twilight 7:26 AM EST 5:52 PM EST
Nautical Twilight 6:52 AM EST 6:26 PM EST
Astronomical Twilight 6:20 AM EST 6:58 PM EST
Moon 1:26 AM EST (12/26) 12:55 PM EST (12/26)
Length of Visible Light 10h 26m
Length of Day
9h 26m
Last Quarter, 38% of the Moon is Illuminated
Dec 26
Last Quarter
Jan 1
New
Jan 7
First Quarter
Jan 15
Full
Jan 24
Last Quarter

Hourly Weather History & Observations

Time (EST) Temp. Windchill Dew Point Humidity Pressure Visibility Wind Dir Wind Speed Gust Speed Precip Events Conditions
12:52 AM 33.1 °F 26.1 °F 21.0 °F 61% 30.20 in 10.0 mi WSW 8.1 mph - N/A   Overcast
1:52 AM 33.1 °F 23.9 °F 24.1 °F 70% 30.20 in 10.0 mi West 12.7 mph - N/A   Overcast
2:52 AM 33.1 °F 23.9 °F 25.0 °F 72% 30.21 in 10.0 mi West 12.7 mph 18.4 mph N/A   Overcast
3:52 AM 32.0 °F 20.8 °F 26.1 °F 79% 30.22 in 10.0 mi West 17.3 mph 24.2 mph N/A   Overcast
4:52 AM 32.0 °F 23.0 °F 25.0 °F 75% 30.23 in 10.0 mi West 11.5 mph 21.9 mph N/A   Overcast
6:31 AM 32.0 °F 22.5 °F 21.2 °F 64% 30.25 in 10.0 mi West 12.7 mph - N/A   Mostly Cloudy
6:52 AM 30.9 °F 22.8 °F 21.0 °F 67% 30.28 in 10.0 mi West 9.2 mph - N/A   Scattered Clouds
7:52 AM 30.9 °F 22.2 °F 21.9 °F 69% 30.31 in 10.0 mi West 10.4 mph - N/A   Mostly Cloudy
8:52 AM 30.9 °F 23.5 °F 21.9 °F 69% 30.33 in 10.0 mi West 8.1 mph - N/A   Mostly Cloudy
9:52 AM 33.1 °F 23.9 °F 21.9 °F 64% 30.36 in 10.0 mi West 12.7 mph - N/A   Partly Cloudy
10:52 AM 35.1 °F 27.4 °F 21.0 °F 57% 30.38 in 10.0 mi West 10.4 mph - N/A   Partly Cloudy
11:52 AM 37.0 °F 29.8 °F 21.0 °F 52% 30.37 in 10.0 mi WSW 10.4 mph - N/A   Clear
12:52 PM 37.9 °F 31.5 °F 21.0 °F 51% 30.36 in 10.0 mi West 9.2 mph 17.3 mph N/A   Partly Cloudy
1:52 PM 39.9 °F 35.1 °F 21.0 °F 47% 30.34 in 10.0 mi West 6.9 mph - N/A   Clear
2:52 PM 41.0 °F 37.1 °F 19.9 °F 43% 30.34 in 10.0 mi WSW 5.8 mph - N/A   Clear
3:52 PM 39.9 °F 35.1 °F 19.9 °F 45% 30.34 in 10.0 mi West 6.9 mph - N/A   Clear
4:52 PM 37.9 °F 33.5 °F 19.0 °F 47% 30.35 in 10.0 mi West 5.8 mph - N/A   Clear
5:52 PM 36.0 °F 32.1 °F 19.0 °F 50% 30.35 in 10.0 mi SSW 4.6 mph - N/A   Clear
6:52 PM 30.9 °F 27.5 °F 19.9 °F 64% 30.36 in 10.0 mi South 3.5 mph - N/A   Partly Cloudy
7:52 PM 30.9 °F 25.2 °F 21.0 °F 67% 30.36 in 10.0 mi SSW 5.8 mph - N/A   Scattered Clouds
8:52 PM 30.0 °F 25.2 °F 21.0 °F 69% 30.36 in 10.0 mi South 4.6 mph - N/A   Partly Cloudy
9:52 PM 30.0 °F 24.1 °F 23.0 °F 75% 30.35 in 10.0 mi South 5.8 mph - N/A   Overcast
10:52 PM 32.0 °F 26.4 °F 23.0 °F 69% 30.36 in 10.0 mi SSW 5.8 mph - N/A   Overcast
11:52 PM 32.0 °F 24.8 °F 23.0 °F 69% 30.35 in 10.0 mi SSW 8.1 mph - N/A   Mostly Cloudy